User: anonymous   Login
Location: ??? ????
(38.0580°N, 23.1536°E)
Time: 04:37:06
(UTC+00:00)
Language:

Cosmos 923 Rocket - Orbit

View from above orbital plane
View from above orbital plane
View from above satellite
View from above satellite

Ground track
Ground track

The orbit is defined by the following mean orbital elements,

1 10121U          26044.57928631 +.00000000 +00000-0 +94442-4 0 00002
2 10121  74.0443  85.9837 0018115  12.0879 348.0705 14.37341311    07
Epoch (UTC): 13 February 2026 13:54:10
Eccentricity: 0.0018115
inclination: 74.0443°
perigee height: 754 km
apogee height: 780 km
right ascension of ascending node: 85.9837°
argument of perigee: 12.0879°
revolutions per day: 14.37341311
mean anomaly at epoch: 348.0705°

The dashed part of the orbit path shows where the satellite is in the earth's shadow,  

DLR